Vertical_Velocity
-0 1 -2 -1 1 0 -6 3 -5 -7 -5 -4 4 -6 -3 -3 -6 -4 -4 -3 -3 -4 -3 -2 -2 -1 -1 -1 -1 -2 -2 -1 -1 -1 1 -1 7 5 -7 6 3 -1 -2 2
-4 1 1 -3 0 -2 2 3 -8 1 -25 12 -2 -0 -1 1 -3 -2 -1 -1 -5 -0 -0 -0 -2 4 3 -0 2 4 -1 -1 -1 2 1 1 7 2 -1 0 3 -8 25 3
-1 -0 0 -1 2 0 2 -1 4 -3 0 -1 -1 2 -3 1 -1 -3 -2 -3 -3 -4 -4 -2 3 4 0 -1 0 -0 4 -2 3 6 2 5 7 7 -6 -5 -3 2 17 13
-1 0 -4 1 -0 -2 -2 1 1 2 1 5 -3 -4 -1 -2 1 -1 -1 -1 -3 -1 -2 1 0 0 -2 7 -5 2 -3 3 4 -1 25 7 8 10 10 10 6 7 4 5
-0 -2 -4 -1 1 -0 -3 2 -2 1 -1 -0 -1 0 0 -1 -0 -2 -2 -3 -2 -1 -1 -0 0 2 -2 -1 -2 -6 -8 -5 -5 4 6 -3 0 -2 8 3 1 3 -1 -0
4 0 -1 3 0 -1 2 1 2 1 4 -2 -1 -2 -3 2 -2 -2 1 -2 -2 -2 -1 1 1 3 2 3 3 5 2 -1 0 -1 1 -3 -5 -8 -2 6 3 2 1 1
1 -2 -5 1 1 2 -1 -1 -1 2 -0 0 1 -3 -3 0 -0 -4 -1 -2 -2 -0 -1 1 0 2 3 0 1 1 -1 0 2 5 5 7 3 0 -4 -5 -3 -1 -2 -2
1 0 -7 0 1 -1 0 2 -1 3 1 -4 -2 2 -2 0 -3 -2 -3 -3 -1 -2 -1 -1 1 1 -2 -1 2 3 0 2 3 3 1 -1 -1 -1 1 1 0 -2 -0 1
-6 1 4 1 0 -2 -0 2 2 1 2 -3 -2 -3 -2 -3 -2 -0 -0 -1 -1 -3 -2 -5 -3 -2 -1 -1 -2 0 2 2 0 -0 -1 -1 -1 -1 -2 -1 0 1 1 1
-0 3 4 1 2 -1 1 -0 2 2 0 -1 1 1 -0 -2 -4 0 -1 0 1 -1 0 1 -0 -3 -1 -0 -1 -1 -1 -1 -2 -3 -2 0 2 3 2 1 -0 -1 -2 -4
-4 0 1 5 1 0 -0 -0 -1 1 2 0 2 2 -2 -2 -1 -3 -3 -0 1 -0 -0 -0 -2 -1 -0 -1 -2 -2 -1 1 3 4 2 0 -1 -1 -2 -4 -4 -1 0 0
-1 -3 -3 2 0 -1 -1 -1 -2 1 2 2 1 1 1 2 -1 -1 -3 -1 -1 -1 -2 -1 0 0 0 0 1 0 -0 0 -0 -1 -1 -2 -3 -3 -1 0 -1 -2 -1 -1
-6 -1 -2 -0 -1 -0 -0 -1 0 0 0 1 2 -0 -1 1 5 -1 -4 0 -3 -1 -1 0 0 -1 0 1 2 1 -1 -3 -4 -4 -3 -1 0 0 0 1 -1 -1 -1 -1
-1 -1 -1 0 -3 -1 -1 -0 2 1 -0 0 1 0 1 -0 6 1 0 1 -5 -2 -3 -1 -1 -2 -2 -2 -3 -3 -2 -2 -2 -1 0 1 0 -0 -0 -1 -2 -2 -3 -2
0 -1 -1 -2 -2 -1 -1 -0 -0 1 1 1 -0 -2 1 -1 3 1 0 -4 -1 -1 -3 -1 0 -1 -2 -2 -1 -0 -1 -1 -1 -1 -1 -1 -0 -0 -1 -2 -3 -2 -3 -2
1 -0 -3 -1 -1 -1 -1 0 -1 1 0 0 -0 -1 -0 -0 -1 4 1 -2 1 -0 -2 -0 -1 -1 -0 0 0 0 -1 -2 -0 0 -0 -0 -1 -2 -2 -2 -2 -1 -1 -2
-4 2 -2 2 -0 -0 -0 -0 0 2 1 -0 -1 1 -2 1 1 -1 1 1 0 -1 -1 -1 -1 -0 -1 -2 -1 -1 -1 -1 -1 -1 -1 -1 -1 -2 -3 -3 -1 -1 -1 -2
-0 1 -1 1 0 -0 -1 -1 -2 -1 0 -1 -2 1 0 2 1 1 1 -0 -0 -1 -0 -2 -1 -1 -1 -0 -0 -0 -0 -0 -0 -1 -1 -1 -2 -1 -1 -1 -1 -2 -2 -1
1 1 1 1 2 0 -1 -2 2 -1 0 -0 -0 8 -1 -2 -0 -1 -0 -0 -0 -1 -1 -1 -0 0 0 0 -0 -0 -1 -1 -1 -1 -1 -1 -0 -0 -1 -1 -1 -2 -2 -2
-0 -2 2 0 1 1 -0 0 -1 3 -1 2 3 2 0 -0 0 -0 1 0 -1 -1 -1 -1 -0 -0 -0 -0 -0 -1 -1 -1 -1 -0 0 -0 -1 -1 -1 -1 -1 -1 -2 -1
11 4 -1 1 3 0 6 0 3 0 -2 -3 -1 -1 -2 -1 0 -1 -0 1 1 -0 -0 -0 0 0 0 -0 0 -0 -0 0 -0 0 1 -0 -0 0 1 -1 -1 -1 -1 -0
-6 -2 2 3 -4 -3 -0 5 1 -0 0 0 1 0 -1 -2 0 0 -1 -1 -1 -0 0 0 0 0 0 0 -1 -1 -0 -0 0 0 -0 -1 -1 0 0 0 -1 -1 -1 0
2 2 -2 -7 -1 3 3 2 5 3 3 7 2 -2 -0 -0 -3 -1 2 1 1 2 1 1 1 0 0 1 -0 -0 -0 0 -1 -1 -1 -1 -1 0 -0 -0 0 1 0 -1
1 0 0 0 0 1 1 2 3 1 -2 -1 2 1 -2 -1 1 1 1 0 1 1 2 1 0 1 1 0 0 -1 -1 -0 -0 -0 -1 -1 -1 -0 0 -0 -1 -0 -0 -0
-1 0 1 1 -1 -0 -0 0 1 1 1 1 -1 0 2 -1 -0 -3 -1 1 -1 1 1 0 -0 1 2 1 0 1 0 -0 1 0 -1 -0 -0 0 -0 -0 -0 -2 -1 1
-0 -1 -2 -2 -1 -0 -0 -0 0 0 -1 1 3 3 3 1 1 -1 1 1 1 -0 1 2 2 0 0 -0 0 0 1 0 -0 -1 -1 -1 0 1 2 -1 -3 -2 -1 0
-3 -2 -0 -1 -3 -1 -1 0 0 -1 -0 1 0 -0 2 2 1 -1 -1 0 0 1 -0 0 1 0 1 1 1 0 1 0 1 -0 0 0 0 -1 0 -1 -2 -2 -0 0
Height
3041 3041 3041 3042 3042 3042 3042 3043 3043 3039 3036 3034 3031 3026 3021 3017 3012 3007 3002 2997 2992 2991 2990 2990 2988 2986 2984 2983 2983 2984 2985 2986 2989 2990 2992 2995 2997 3000 3004 3009 3011 3014 3017 3020
3038 3038 3039 3038 3039 3039 3039 3040 3038 3036 3032 3031 3026 3023 3019 3014 3007 3003 2998 2994 2990 2989 2989 2988 2986 2984 2982 2981 2979 2979 2981 2982 2984 2985 2988 2990 2994 2996 2997 3002 3005 3008 3010 3014
3037 3037 3037 3035 3031 3031 3033 3034 3035 3033 3030 3027 3023 3019 3015 3009 3004 3000 2996 2993 2989 2988 2987 2986 2984 2982 2981 2978 2977 2976 2978 2979 2981 2983 2985 2987 2990 2992 2995 2997 3001 3003 3006 3008
3037 3036 3038 3030 3030 3030 3031 3032 3031 3029 3027 3023 3020 3016 3011 3006 3001 2997 2994 2992 2989 2986 2985 2985 2983 2981 2980 2978 2977 2976 2977 2977 2978 2981 2979 2986 2988 2988 2990 2994 2996 2999 3002 3006
3036 3035 3031 3028 3030 3030 3030 3030 3029 3027 3024 3021 3018 3014 3010 3004 2999 2995 2991 2990 2988 2985 2984 2982 2981 2980 2979 2978 2978 2979 2978 2976 2978 2980 2982 2985 2987 2989 2987 2990 2995 2997 2999 3002
3036 3035 3030 3027 3028 3028 3028 3028 3026 3024 3022 3019 3017 3013 3009 3003 2998 2995 2989 2987 2986 2984 2982 2981 2980 2980 2979 2978 2977 2977 2976 2977 2978 2979 2982 2986 2988 2990 2992 2993 2994 2996 2999 3001
3035 3034 3026 3026 3027 3027 3028 3031 3024 3022 3020 3017 3016 3013 3009 3003 2999 2995 2991 2988 2986 2983 2982 2980 2979 2979 2979 2980 2978 2977 2976 2976 2978 2981 2985 2985 2988 2990 2994 2996 2998 2998 2998 3000
3031 3032 3026 3024 3026 3027 3027 3025 3023 3020 3018 3017 3015 3013 3009 3006 3001 2997 2993 2990 2986 2984 2983 2983 2981 2981 2982 2983 2981 2980 2981 2984 2985 2987 2989 2991 2992 2994 2996 2996 2995 2996 2997 2997
3025 3023 3023 3023 3024 3023 3023 3022 3021 3019 3017 3016 3015 3013 3011 3008 3004 3000 2996 2993 2991 2987 2985 2984 2985 2984 2986 2987 2986 2988 2989 2990 2991 2992 2993 2994 2994 2995 2996 2997 2997 2997 2996 2994
3021 3020 3021 3021 3022 3021 3020 3020 3019 3018 3016 3015 3014 3012 3012 3010 3007 3004 3001 2998 2995 2994 2993 2991 2989 2990 2992 2992 2992 2992 2993 2994 2995 2996 2996 2997 2998 2998 2997 2996 2995 2993 2992 2990
3016 3018 3018 3019 3018 3018 3017 3017 3016 3015 3014 3013 3011 3010 3010 3009 3008 3006 3004 3002 2999 2998 2997 2996 2995 2995 2996 2996 2996 2997 2997 2998 2998 2998 2997 2997 2997 2996 2996 2995 2993 2991 2988 2984
3013 3013 3014 3015 3015 3015 3014 3014 3013 3012 3011 3010 3009 3008 3007 3007 3008 3007 3006 3004 3002 3001 3000 2999 2999 2999 2998 2998 2999 2999 2999 2999 2998 2998 2997 2997 2996 2995 2993 2992 2990 2987 2984 2979
3007 3009 3009 3010 3011 3011 3010 3010 3009 3009 3008 3007 3006 3006 3005 3005 3005 3006 3006 3005 3004 3003 3002 3002 3001 3001 3001 3001 3001 3000 3000 2999 2999 2998 2997 2996 2995 2993 2992 2990 2987 2983 2977 2970
3003 3004 3005 3006 3006 3006 3006 3006 3006 3005 3005 3004 3003 3003 3002 3002 3002 3004 3004 3005 3004 3004 3003 3003 3003 3003 3003 3002 3002 3002 3001 3000 2998 2997 2996 2995 2994 2992 2989 2985 2981 2975 2968 2961
2999 2999 3000 3000 3001 3001 3001 3001 3002 3001 3001 3001 3000 2999 2999 2999 3000 3002 3003 3004 3003 3003 3003 3003 3003 3003 3002 3002 3002 3001 3000 2999 2998 2997 2996 2994 2992 2988 2984 2980 2975 2968 2961 2955
2994 2994 2994 2995 2995 2995 2995 2995 2996 2996 2997 2997 2997 2997 2997 2997 2999 3000 3001 3002 3002 3002 3001 3002 3002 3002 3001 3001 3001 3000 2999 2998 2997 2995 2993 2991 2988 2984 2979 2974 2969 2963 2957 2950
2988 2990 2990 2990 2991 2990 2990 2990 2990 2991 2991 2992 2993 2993 2994 2995 2997 2997 2999 2999 2999 2999 2999 3000 3000 3000 3000 3000 2999 2998 2997 2995 2994 2992 2990 2987 2984 2980 2975 2971 2964 2958 2952 2946
2982 2983 2984 2985 2986 2987 2987 2986 2986 2987 2987 2988 2988 2989 2991 2992 2994 2995 2996 2996 2996 2997 2997 2998 2998 2998 2998 2997 2997 2996 2994 2993 2991 2989 2987 2984 2981 2977 2972 2966 2960 2954 2948 2943
2977 2977 2977 2979 2981 2982 2983 2983 2983 2983 2983 2983 2984 2986 2988 2990 2992 2992 2993 2993 2994 2994 2995 2995 2995 2996 2995 2995 2994 2993 2992 2991 2989 2987 2985 2982 2978 2973 2968 2962 2956 2951 2945 2941
2974 2973 2972 2973 2974 2977 2978 2978 2979 2979 2979 2980 2982 2984 2987 2988 2989 2989 2990 2990 2991 2992 2993 2993 2993 2993 2993 2992 2992 2991 2990 2988 2986 2984 2982 2979 2974 2969 2963 2957 2952 2947 2942 2938
2972 2971 2971 2972 2972 2972 2972 2974 2975 2976 2978 2980 2982 2983 2984 2985 2986 2986 2986 2988 2989 2989 2989 2990 2990 2990 2990 2989 2989 2988 2987 2985 2984 2982 2979 2975 2970 2965 2959 2953 2948 2942 2937 2934
2975 2974 2973 2972 2972 2972 2972 2972 2974 2975 2977 2977 2978 2979 2981 2982 2983 2984 2984 2984 2985 2985 2986 2987 2987 2987 2987 2986 2986 2985 2984 2982 2980 2978 2975 2971 2966 2960 2954 2948 2943 2937 2933 2930
2974 2973 2973 2972 2971 2972 2972 2971 2972 2973 2973 2973 2974 2975 2977 2978 2979 2980 2981 2982 2982 2982 2983 2983 2983 2983 2983 2983 2982 2982 2981 2979 2977 2974 2971 2966 2961 2954 2949 2943 2937 2933 2928 2925
2972 2971 2971 2970 2969 2968 2968 2968 2968 2968 2969 2969 2970 2970 2971 2973 2974 2976 2976 2976 2977 2978 2978 2979 2979 2980 2980 2980 2979 2978 2977 2975 2973 2970 2966 2961 2955 2949 2944 2938 2933 2928 2924 2922
2968 2968 2967 2966 2966 2965 2964 2964 2963 2963 2964 2964 2964 2965 2965 2966 2968 2969 2970 2971 2972 2973 2974 2974 2975 2976 2976 2976 2975 2974 2973 2971 2968 2965 2961 2956 2950 2944 2938 2933 2929 2924 2921 2919
2961 2961 2961 2960 2960 2959 2959 2959 2958 2958 2957 2958 2958 2959 2959 2959 2961 2962 2963 2965 2966 2966 2968 2969 2970 2971 2971 2971 2971 2969 2968 2965 2963 2960 2955 2950 2944 2939 2933 2929 2925 2922 2919 2917
2950 2949 2949 2949 2949 2951 2951 2952 2952 2951 2950 2950 2951 2952 2952 2953 2955 2956 2957 2959 2960 2960 2962 2964 2965 2966 2966 2966 2965 2964 2963 2961 2958 2954 2950 2945 2939 2934 2929 2926 2922 2919 2916 2914